Year,Month,Day,Hour,Minute,Value (Times are PST for temperature in C)
2013,09,23,09,59,11.90
2013,09,23,10,00,11.90
2013,09,23,10,01,12.00
2013,09,23,10,02,12.10
2013,09,23,10,03,12.10
2013,09,23,10,04,12.30
2013,09,23,10,05,12.40
2013,09,23,10,06,12.60
2013,09,23,10,07,12.80
2013,09,23,10,08,13.00
2013,09,23,10,09,13.10
2013,09,23,10,10,13.20
2013,09,23,10,11,13.20
2013,09,23,10,12,13.30
2013,09,23,10,13,13.30
2013,09,23,10,14,13.30
2013,09,23,10,15,13.30
2013,09,23,10,16,13.30
2013,09,23,10,17,13.30
2013,09,23,10,18,13.40
2013,09,23,10,19,13.40
2013,09,23,10,20,13.50
2013,09,23,10,21,13.50
2013,09,23,10,22,13.60
2013,09,23,10,23,13.60
2013,09,23,10,24,13.60
2013,09,23,10,25,13.70
2013,09,23,10,26,13.70
2013,09,23,10,27,13.70
2013,09,23,10,28,13.60
2013,09,23,10,29,13.50
2013,09,23,10,30,13.50
2013,09,23,10,31,13.40
2013,09,23,10,32,13.40
2013,09,23,10,33,13.40
2013,09,23,10,34,13.50
2013,09,23,10,35,13.50
2013,09,23,10,36,13.60
2013,09,23,10,37,13.60
2013,09,23,10,38,13.60
2013,09,23,10,39,13.70
2013,09,23,10,40,13.70
2013,09,23,10,41,13.80
2013,09,23,10,42,13.80
2013,09,23,10,43,14.00
2013,09,23,10,44,14.00
2013,09,23,10,45,14.10
2013,09,23,10,46,14.20
2013,09,23,10,47,14.20
2013,09,23,10,48,14.20
2013,09,23,10,49,14.20
2013,09,23,10,50,14.20
2013,09,23,10,51,14.20
2013,09,23,10,52,14.20
2013,09,23,10,53,14.20
2013,09,23,10,54,14.20
2013,09,23,10,55,14.10
2013,09,23,10,56,14.10
2013,09,23,10,57,14.00
2013,09,23,10,58,14.00
2013,09,23,10,59,14.00
2013,09,23,11,00,13.90
2013,09,23,11,01,13.90
2013,09,23,11,02,13.90
2013,09,23,11,03,13.90
2013,09,23,11,04,13.90
2013,09,23,11,05,13.90
2013,09,23,11,06,13.90
2013,09,23,11,07,13.90
2013,09,23,11,08,13.90
2013,09,23,11,09,13.90
2013,09,23,11,10,13.90
2013,09,23,11,11,13.90
2013,09,23,11,12,13.90
2013,09,23,11,13,13.90
2013,09,23,11,14,14.00
2013,09,23,11,15,14.10
2013,09,23,11,16,14.20
2013,09,23,11,17,14.30
2013,09,23,11,18,14.50
2013,09,23,11,19,14.60
2013,09,23,11,20,14.80
2013,09,23,11,21,14.80
2013,09,23,11,22,14.90
2013,09,23,11,23,15.00
2013,09,23,11,24,15.00
2013,09,23,11,25,15.00
2013,09,23,11,26,15.00
2013,09,23,11,27,15.00
2013,09,23,11,28,15.00
2013,09,23,11,29,15.00
2013,09,23,11,30,15.00
2013,09,23,11,31,15.00
2013,09,23,11,32,15.00
2013,09,23,11,33,15.00
2013,09,23,11,34,15.00
2013,09,23,11,35,15.00
2013,09,23,11,36,15.00
2013,09,23,11,37,15.10
2013,09,23,11,38,15.20
2013,09,23,11,39,15.20
2013,09,23,11,40,15.20
2013,09,23,11,41,15.30
2013,09,23,11,42,15.30
2013,09,23,11,43,15.30
2013,09,23,11,44,15.30
2013,09,23,11,45,15.30
2013,09,23,11,46,15.30
2013,09,23,11,47,15.30
2013,09,23,11,48,15.30
2013,09,23,11,49,15.20
2013,09,23,11,50,15.10
2013,09,23,11,51,15.00
2013,09,23,11,52,15.00
2013,09,23,11,53,15.00
2013,09,23,11,54,15.00
2013,09,23,11,55,15.00
2013,09,23,11,56,15.00
2013,09,23,11,57,15.00
2013,09,23,11,58,15.00
2013,09,23,11,59,15.10
2013,09,23,12,00,15.20
2013,09,23,12,01,15.30
2013,09,23,12,02,15.40
2013,09,23,12,03,15.50
2013,09,23,12,04,15.60
2013,09,23,12,05,15.70
2013,09,23,12,06,15.90
2013,09,23,12,07,15.90
2013,09,23,12,08,16.00
2013,09,23,12,09,16.00
2013,09,23,12,10,15.90
2013,09,23,12,11,15.90
2013,09,23,12,12,16.00
2013,09,23,12,13,16.00
2013,09,23,12,14,16.10
2013,09,23,12,15,16.10
2013,09,23,12,16,16.20
2013,09,23,12,17,16.20
2013,09,23,12,18,16.20
2013,09,23,12,19,16.30
2013,09,23,12,20,16.30
2013,09,23,12,21,16.40
2013,09,23,12,22,16.50
2013,09,23,12,23,16.50
2013,09,23,12,24,16.40
2013,09,23,12,25,16.30
2013,09,23,12,26,16.20
2013,09,23,12,27,16.10
2013,09,23,12,28,16.10
2013,09,23,12,29,16.10
2013,09,23,12,30,16.20
2013,09,23,12,31,16.20
2013,09,23,12,32,16.10
2013,09,23,12,33,16.10
2013,09,23,12,34,16.10
2013,09,23,12,35,16.10
2013,09,23,12,36,16.10
2013,09,23,12,37,16.00
2013,09,23,12,38,16.00
2013,09,23,12,39,16.00
2013,09,23,12,40,16.10
2013,09,23,12,41,16.20
2013,09,23,12,42,16.30
2013,09,23,12,43,16.30
2013,09,23,12,44,16.40
2013,09,23,12,45,16.30
2013,09,23,12,46,16.30
2013,09,23,12,47,16.20
2013,09,23,12,48,16.10
2013,09,23,12,49,16.10
2013,09,23,12,50,16.00
2013,09,23,12,51,15.90
2013,09,23,12,52,15.90
2013,09,23,12,53,15.80
2013,09,23,12,54,15.90
2013,09,23,12,55,15.90
2013,09,23,12,56,16.00
2013,09,23,12,57,15.90
2013,09,23,12,58,15.90
2013,09,23,12,59,16.00
2013,09,23,13,00,16.10
2013,09,23,13,01,16.10
2013,09,23,13,02,16.00
2013,09,23,13,03,15.90
2013,09,23,13,04,16.00
2013,09,23,13,05,16.10
2013,09,23,13,06,16.10
2013,09,23,13,07,16.10
2013,09,23,13,08,16.20
2013,09,23,13,09,16.10
2013,09,23,13,10,16.10
2013,09,23,13,11,16.20
2013,09,23,13,12,16.20
2013,09,23,13,13,16.20
2013,09,23,13,14,16.20
2013,09,23,13,15,16.30
2013,09,23,13,16,16.20
2013,09,23,13,17,16.10
2013,09,23,13,18,16.00
2013,09,23,13,19,15.90
2013,09,23,13,20,15.90
2013,09,23,13,21,15.80
2013,09,23,13,22,15.80
2013,09,23,13,23,15.80
2013,09,23,13,24,15.70
2013,09,23,13,25,15.70
2013,09,23,13,26,15.70
2013,09,23,13,27,15.60
2013,09,23,13,28,15.50
2013,09,23,13,29,15.40
2013,09,23,13,30,15.30
2013,09,23,13,31,15.30
2013,09,23,13,32,15.30
2013,09,23,13,33,15.20
2013,09,23,13,34,15.20
2013,09,23,13,35,15.10
2013,09,23,13,36,15.00
2013,09,23,13,37,15.00
2013,09,23,13,38,15.00
2013,09,23,13,39,15.00
2013,09,23,13,40,15.00
2013,09,23,13,41,15.00
2013,09,23,13,42,15.00
2013,09,23,13,43,15.00
2013,09,23,13,44,15.00
2013,09,23,13,45,15.00
2013,09,23,13,46,15.00
2013,09,23,13,47,15.00
2013,09,23,13,48,15.00
2013,09,23,13,49,15.00
2013,09,23,13,50,15.00
2013,09,23,13,51,15.00
2013,09,23,13,52,15.00
2013,09,23,13,53,15.00
2013,09,23,13,54,15.00
2013,09,23,13,55,15.00
2013,09,23,13,56,15.00
2013,09,23,13,57,15.00
2013,09,23,13,58,15.00
2013,09,23,13,59,15.00
2013,09,23,14,00,14.80
2013,09,23,14,01,14.80
2013,09,23,14,02,14.70
2013,09,23,14,03,14.80
2013,09,23,14,04,14.80
2013,09,23,14,05,14.90
2013,09,23,14,06,15.00
2013,09,23,14,07,15.00
2013,09,23,14,08,15.00
2013,09,23,14,09,15.00
2013,09,23,14,10,15.00
2013,09,23,14,11,15.00
2013,09,23,14,12,15.00
2013,09,23,14,13,15.00
2013,09,23,14,14,14.80
2013,09,23,14,15,14.80
2013,09,23,14,16,14.80
2013,09,23,14,17,14.80
2013,09,23,14,18,14.70
2013,09,23,14,19,14.70
2013,09,23,14,20,14.70
2013,09,23,14,21,14.70
2013,09,23,14,22,14.70
2013,09,23,14,23,14.70
2013,09,23,14,24,14.70
2013,09,23,14,25,14.80
2013,09,23,14,26,14.90
2013,09,23,14,27,15.00
2013,09,23,14,28,15.00
2013,09,23,14,29,15.00
2013,09,23,14,30,15.00
2013,09,23,14,31,15.00
2013,09,23,14,32,15.00
2013,09,23,14,33,15.00
2013,09,23,14,34,15.10
2013,09,23,14,35,15.10
2013,09,23,14,36,15.10
2013,09,23,14,37,15.00
2013,09,23,14,38,15.00
2013,09,23,14,39,15.10
2013,09,23,14,40,15.20
2013,09,23,14,41,15.30
2013,09,23,14,42,15.40
2013,09,23,14,43,15.50
2013,09,23,14,44,15.60
2013,09,23,14,45,15.60
2013,09,23,14,46,15.70
2013,09,23,14,47,15.70
2013,09,23,14,48,15.70
2013,09,23,14,49,15.70
2013,09,23,14,50,15.70
2013,09,23,14,51,15.70
2013,09,23,14,52,15.80
2013,09,23,14,53,15.80
2013,09,23,14,54,15.90
2013,09,23,14,55,15.90
2013,09,23,14,56,15.90
2013,09,23,14,57,15.90
2013,09,23,14,58,15.90
2013,09,23,14,59,15.90
2013,09,23,15,00,16.00
2013,09,23,15,01,16.00
2013,09,23,15,02,16.00
2013,09,23,15,03,16.00
2013,09,23,15,04,16.00
2013,09,23,15,05,16.00
2013,09,23,15,06,15.90
2013,09,23,15,07,15.90
2013,09,23,15,08,15.90
2013,09,23,15,09,15.90
2013,09,23,15,10,15.90
2013,09,23,15,11,15.90
2013,09,23,15,12,15.90
2013,09,23,15,13,15.90
2013,09,23,15,14,15.80
2013,09,23,15,15,15.70
2013,09,23,15,16,15.70
2013,09,23,15,17,15.70
2013,09,23,15,18,15.70
2013,09,23,15,19,15.70
2013,09,23,15,20,15.70
2013,09,23,15,21,15.70
2013,09,23,15,22,15.70
2013,09,23,15,23,15.60
2013,09,23,15,24,15.60
2013,09,23,15,25,15.50
2013,09,23,15,26,15.40
2013,09,23,15,27,15.30
2013,09,23,15,28,15.20
2013,09,23,15,29,15.10
2013,09,23,15,30,15.00
2013,09,23,15,31,15.00
2013,09,23,15,32,15.00
2013,09,23,15,33,15.00
2013,09,23,15,34,14.90
2013,09,23,15,35,14.80
2013,09,23,15,36,14.70
2013,09,23,15,37,14.60
2013,09,23,15,38,14.50
2013,09,23,15,39,14.50
2013,09,23,15,40,14.40
2013,09,23,15,41,14.40
2013,09,23,15,42,14.40
2013,09,23,15,43,14.40
2013,09,23,15,44,14.40
2013,09,23,15,45,14.30
2013,09,23,15,46,14.30
2013,09,23,15,47,14.30
2013,09,23,15,48,14.30
2013,09,23,15,49,14.30
2013,09,23,15,50,14.30
2013,09,23,15,51,14.30
2013,09,23,15,52,14.30
2013,09,23,15,53,14.30
2013,09,23,15,54,14.30
2013,09,23,15,55,14.30
2013,09,23,15,56,14.40
2013,09,23,15,57,14.50
2013,09,23,15,58,14.60
2013,09,23,15,59,14.70
2013,09,23,16,00,14.70
2013,09,23,16,01,14.70
2013,09,23,16,02,14.70
2013,09,23,16,03,14.80
2013,09,23,16,04,14.80
2013,09,23,16,05,14.90
2013,09,23,16,06,15.00
2013,09,23,16,07,15.00
2013,09,23,16,08,15.00
2013,09,23,16,09,15.10
2013,09,23,16,10,15.20
2013,09,23,16,11,15.20
2013,09,23,16,12,15.30
2013,09,23,16,13,15.30
2013,09,23,16,14,15.30
2013,09,23,16,15,15.40
2013,09,23,16,16,15.50
2013,09,23,16,17,15.60
2013,09,23,16,18,15.70
2013,09,23,16,19,15.80
2013,09,23,16,20,15.80
2013,09,23,16,21,15.90
2013,09,23,16,22,16.00
2013,09,23,16,23,16.00
2013,09,23,16,24,16.10
2013,09,23,16,25,16.20
2013,09,23,16,26,16.30
2013,09,23,16,27,16.40
2013,09,23,16,28,16.50
2013,09,23,16,29,16.50
2013,09,23,16,30,16.50
2013,09,23,16,31,16.50
2013,09,23,16,32,16.40
2013,09,23,16,33,16.40
2013,09,23,16,34,16.40
2013,09,23,16,35,16.50
2013,09,23,16,36,16.50
2013,09,23,16,37,16.50
2013,09,23,16,38,16.50
2013,09,23,16,39,16.50
2013,09,23,16,40,16.50
2013,09,23,16,41,16.50
2013,09,23,16,42,16.50
2013,09,23,16,43,16.40
2013,09,23,16,44,16.40
2013,09,23,16,45,16.30
2013,09,23,16,46,16.20
2013,09,23,16,47,16.20
2013,09,23,16,48,16.20
2013,09,23,16,49,16.20
2013,09,23,16,50,16.10
2013,09,23,16,51,16.10
2013,09,23,16,52,16.00
2013,09,23,16,53,15.90
2013,09,23,16,54,15.90
2013,09,23,16,55,15.90
2013,09,23,16,56,15.90
2013,09,23,16,57,15.90
2013,09,23,16,58,16.00
2013,09,23,16,59,16.00
2013,09,23,17,00,16.10
2013,09,23,17,01,16.30
2013,09,23,17,02,16.40
2013,09,23,17,03,16.50
2013,09,23,17,04,16.60
2013,09,23,17,05,16.60
2013,09,23,17,06,16.60
2013,09,23,17,07,16.70
2013,09,23,17,08,16.70
2013,09,23,17,09,16.80
2013,09,23,17,10,16.80
2013,09,23,17,11,16.80
2013,09,23,17,12,16.80
2013,09,23,17,13,16.80
2013,09,23,17,14,16.80
2013,09,23,17,15,16.90
2013,09,23,17,16,16.90
2013,09,23,17,17,16.90
2013,09,23,17,18,16.90
2013,09,23,17,19,16.80
2013,09,23,17,20,16.80
2013,09,23,17,21,16.70
2013,09,23,17,22,16.70
2013,09,23,17,23,16.60
2013,09,23,17,24,16.60
2013,09,23,17,25,16.50
2013,09,23,17,26,16.30
2013,09,23,17,27,16.10
2013,09,23,17,28,15.90
2013,09,23,17,29,15.80
2013,09,23,17,30,15.70
2013,09,23,17,31,15.50
2013,09,23,17,32,15.40
2013,09,23,17,33,15.30
2013,09,23,17,34,15.30
2013,09,23,17,35,15.20
2013,09,23,17,36,15.10
2013,09,23,17,37,15.00
2013,09,23,17,38,15.00
2013,09,23,17,39,15.00
2013,09,23,17,40,15.00
2013,09,23,17,41,15.00
2013,09,23,17,42,15.00
2013,09,23,17,43,15.00
2013,09,23,17,44,15.00
2013,09,23,17,45,15.00
2013,09,23,17,46,15.00
2013,09,23,17,47,14.90
2013,09,23,17,48,14.90
2013,09,23,17,49,14.80
2013,09,23,17,50,14.80
2013,09,23,17,51,14.80
2013,09,23,17,52,14.80
2013,09,23,17,53,14.80
2013,09,23,17,54,14.70
2013,09,23,17,55,14.70
2013,09,23,17,56,14.70
2013,09,23,17,57,14.70
2013,09,23,17,58,14.70
2013,09,23,17,59,14.70
2013,09,23,18,00,14.70
2013,09,23,18,01,14.80
2013,09,23,18,02,14.90
2013,09,23,18,03,15.00
2013,09,23,18,04,15.00
2013,09,23,18,05,15.00
2013,09,23,18,06,15.00
2013,09,23,18,07,15.00
2013,09,23,18,08,15.00
2013,09,23,18,09,15.00
2013,09,23,18,10,15.00
2013,09,23,18,11,15.00
2013,09,23,18,12,15.00
2013,09,23,18,13,15.00
2013,09,23,18,14,15.00
2013,09,23,18,15,15.00
2013,09,23,18,16,15.00
2013,09,23,18,17,15.00
2013,09,23,18,18,14.90
2013,09,23,18,19,14.90
2013,09,23,18,20,14.80
2013,09,23,18,21,14.80
2013,09,23,18,22,14.80
2013,09,23,18,23,14.80
2013,09,23,18,24,14.80
2013,09,23,18,25,14.70
2013,09,23,18,26,14.70
2013,09,23,18,27,14.70
2013,09,23,18,28,14.70
2013,09,23,18,29,14.60
2013,09,23,18,30,14.60
2013,09,23,18,31,14.50
2013,09,23,18,32,14.50
2013,09,23,18,33,14.40
2013,09,23,18,34,14.40
2013,09,23,18,35,14.30
2013,09,23,18,36,14.30
2013,09,23,18,37,14.30
2013,09,23,18,38,14.20
2013,09,23,18,39,14.10
2013,09,23,18,40,14.00
2013,09,23,18,41,14.00
2013,09,23,18,42,13.90
2013,09,23,18,43,13.80
2013,09,23,18,44,13.80
2013,09,23,18,45,13.80
2013,09,23,18,46,13.70
2013,09,23,18,47,13.70
2013,09,23,18,48,13.60
2013,09,23,18,49,13.60
2013,09,23,18,50,13.60
2013,09,23,18,51,13.60
2013,09,23,18,52,13.60
2013,09,23,18,53,13.60
2013,09,23,18,54,13.60
2013,09,23,18,55,13.60
2013,09,23,18,56,13.60
2013,09,23,18,57,13.60
2013,09,23,18,58,13.60
